When you browse on this site, cookies collect data to enhance your experience and personalize the content and advertising you see.
Visit our Privacy Policy to learn more. By continuing to use the site, you agree to this use of cookies and data.
  • En España
  • Lista de países
  • Para 7 días
  • Temperatura del agua
  • Mapa Satelital
  • El tiempo en el mapa
  • Informadores
  • user-avatar
    Iniciar sesión

    Tiempo cada hora Yerevan

    Hoy, 23 Enero, Miércoles

    Tiempo Temperatura Precipitaciones Viento Presión Humedad
    00:00 +1°C° 0 mm 1 mps 691 mmHg 51%
    01:00 +1°C° 0 mm 1 mps 691 mmHg 51%
    02:00 0°C° 0 mm 1 mps 691 mmHg 51%
    03:00 0°C° 0 mm 1 mps 691 mmHg 52%
    04:00 0°C° 0 mm 1 mps 691 mmHg 52%
    05:00 0°C° 0 mm 1 mps 691 mmHg 52%
    06:00 0°C° 0 mm 1 mps 691 mmHg 52%
    07:00 +1°C° 0 mm 1 mps 692 mmHg 49%
    08:00 +2°C° 0 mm 1 mps 692 mmHg 47%
    09:00 +2°C° 0 mm 1 mps 692 mmHg 44%
    10:00 +2°C° 0 mm 2 mps 692 mmHg 42%
    11:00 +3°C° 0 mm 2 mps 692 mmHg 40%
    12:00 +5°C° 0 mm 2 mps 692 mmHg 38%
    13:00 +5°C° 0 mm 2 mps 691 mmHg 38%
    14:00 +5°C° 0 mm 2 mps 691 mmHg 38%
    15:00 +6°C° 0 mm 2 mps 691 mmHg 38%
    16:00 +5°C° 0 mm 2 mps 691 mmHg 41%
    17:00 +4°C° 0 mm 2 mps 692 mmHg 44%
    18:00 +1°C° 0 mm 3 mps 692 mmHg 47%
    19:00 +2°C° 0 mm 2 mps 692 mmHg 48%
    20:00 +2°C° 0 mm 2 mps 693 mmHg 49%
    21:00 +1°C° 0 mm 2 mps 693 mmHg 51%
    22:00 +1°C° 0 mm 2 mps 693 mmHg 52%
    23:00 +1°C° 0 mm 2 mps 693 mmHg 54%

    Mañana, 24 Enero, Jueves

    Tiempo Temperatura Precipitaciones Viento Presión Humedad
    00:00 +1°C° 0 mm 2 mps 693 mmHg 55%
    01:00 -1°C° 0 mm 2 mps 693 mmHg 55%
    02:00 -1°C° 0 mm 2 mps 693 mmHg 56%
    03:00 -1°C° 0 mm 2 mps 693 mmHg 56%
    04:00 -1°C° 0 mm 2 mps 693 mmHg 56%
    05:00 -1°C° 0 mm 2 mps 693 mmHg 56%
    06:00 -2°C° 0 mm 2 mps 693 mmHg 56%
    07:00 -1°C° 0 mm 2 mps 693 mmHg 53%
    08:00 +1°C° 0 mm 2 mps 693 mmHg 50%
    09:00 +2°C° 0 mm 2 mps 693 mmHg 47%
    10:00 +3°C° 0 mm 2 mps 693 mmHg 45%
    11:00 +3°C° 0 mm 3 mps 692 mmHg 43%
    12:00 +4°C° 0 mm 3 mps 692 mmHg 41%
    13:00 +5°C° 0 mm 3 mps 692 mmHg 41%
    14:00 +5°C° 0 mm 3 mps 691 mmHg 41%
    15:00 +5°C° 0 mm 3 mps 691 mmHg 41%
    16:00 +4°C° 0 mm 3 mps 691 mmHg 44%
    17:00 +3°C° 0 mm 3 mps 691 mmHg 46%
    18:00 +3°C° 0 mm 3 mps 692 mmHg 49%
    19:00 +2°C° 0 mm 3 mps 692 mmHg 50%
    20:00 +2°C° 0 mm 3 mps 692 mmHg 51%
    21:00 +2°C° 0 mm 2 mps 692 mmHg 52%
    22:00 +2°C° 0 mm 2 mps 692 mmHg 53%
    23:00 +2°C° 0 mm 2 mps 691 mmHg 53%

    Pasado mañana, 25 Enero, Viernes

    Tiempo Temperatura Precipitaciones Viento Presión Humedad
    00:00 +2°C° 0 mm 2 mps 691 mmHg 53%
    01:00 +2°C° 0 mm 2 mps 691 mmHg 53%
    02:00 +2°C° 0 mm 2 mps 691 mmHg 53%
    03:00 +2°C° 0 mm 2 mps 691 mmHg 53%
    04:00 +2°C° 0 mm 2 mps 690 mmHg 53%
    05:00 +2°C° 0 mm 2 mps 690 mmHg 53%
    06:00 +2°C° 0 mm 2 mps 690 mmHg 54%
    07:00 +2°C° 0.1 mm 2 mps 690 mmHg 54%
    08:00 +3°C° 0.1 mm 2 mps 690 mmHg 55%
    09:00 +3°C° 0.1 mm 2 mps 690 mmHg 56%
    10:00 +4°C° 0.1 mm 2 mps 690 mmHg 55%
    11:00 +5°C° 0.1 mm 2 mps 690 mmHg 54%
    12:00 +6°C° 0.1 mm 2 mps 689 mmHg 52%
    13:00 +6°C° 0 mm 2 mps 689 mmHg 51%
    14:00 +7°C° 0 mm 3 mps 689 mmHg 50%
    15:00 +7°C° 0 mm 3 mps 688 mmHg 49%
    16:00 +5°C° 0 mm 3 mps 689 mmHg 51%
    17:00 +5°C° 0 mm 3 mps 689 mmHg 53%
    18:00 +4°C° 0 mm 3 mps 689 mmHg 56%
    19:00 +3°C° 0 mm 3 mps 690 mmHg 56%
    20:00 +3°C° 0 mm 3 mps 690 mmHg 57%
    21:00 +4°C° 0 mm 2 mps 690 mmHg 57%
    22:00 +3°C° 0 mm 2 mps 690 mmHg 57%
    23:00 +3°C° 0 mm 2 mps 690 mmHg 58%

    26 Enero, Sábado

    Tiempo Temperatura Precipitaciones Viento Presión Humedad
    00:00 +3°C° 0 mm 2 mps 690 mmHg 58%
    01:00 +3°C° 0 mm 2 mps 690 mmHg 58%
    02:00 +2°C° 0 mm 2 mps 689 mmHg 59%
    03:00 +2°C° 0 mm 2 mps 689 mmHg 59%
    04:00 +2°C° 0 mm 2 mps 689 mmHg 59%
    05:00 +2°C° 0 mm 2 mps 689 mmHg 59%
    06:00 +2°C° 0 mm 2 mps 689 mmHg 59%
    07:00 +3°C° 0 mm 2 mps 689 mmHg 56%
    08:00 +4°C° 0 mm 2 mps 690 mmHg 54%
    09:00 +5°C° 0 mm 2 mps 690 mmHg 51%
    10:00 +5°C° 0 mm 3 mps 689 mmHg 48%
    11:00 +7°C° 0 mm 3 mps 689 mmHg 45%
    12:00 +8°C° 0 mm 3 mps 688 mmHg 42%
    13:00 +9°C° 0 mm 3 mps 688 mmHg 41%
    14:00 +9°C° 0 mm 3 mps 687 mmHg 40%
    15:00 +10°C° 0 mm 4 mps 687 mmHg 40%
    16:00 +9°C° 0 mm 3 mps 686 mmHg 43%
    17:00 +8°C° 0 mm 3 mps 686 mmHg 46%
    18:00 +7°C° 0 mm 3 mps 686 mmHg 50%
    19:00 +7°C° 0.2 mm 3 mps 686 mmHg 53%
    20:00 +7°C° 0.2 mm 3 mps 686 mmHg 57%
    21:00 +7°C° 0.2 mm 3 mps 686 mmHg 60%
    22:00 +5°C° 0.1 mm 3 mps 686 mmHg 62%
    23:00 +5°C° 0.1 mm 3 mps 686 mmHg 64%

    27 Enero, Domingo

    Tiempo Temperatura Precipitaciones Viento Presión Humedad
    00:00 +5°C° 0.1 mm 3 mps 685 mmHg 66%
    01:00 +5°C° 0.1 mm 3 mps 685 mmHg 67%
    02:00 +4°C° 0.1 mm 3 mps 685 mmHg 68%
    03:00 +4°C° 0.1 mm 3 mps 685 mmHg 68%
    04:00 +4°C° 0.1 mm 3 mps 685 mmHg 69%
    05:00 +4°C° 0.1 mm 3 mps 684 mmHg 70%
    06:00 +4°C° 0.1 mm 3 mps 684 mmHg 70%
    07:00 +5°C° 0.3 mm 3 mps 684 mmHg 69%
    08:00 +5°C° 0.3 mm 3 mps 685 mmHg 68%
    09:00 +7°C° 0.3 mm 3 mps 685 mmHg 67%
    10:00 +8°C° 0.1 mm 3 mps 685 mmHg 63%
    11:00 +9°C° 0.1 mm 3 mps 685 mmHg 59%
    12:00 +11°C° 0.1 mm 3 mps 685 mmHg 55%
    13:00 +12°C° 0 mm 2 mps 685 mmHg 52%
    14:00 +13°C° 0 mm 2 mps 685 mmHg 48%
    15:00 +13°C° 0 mm 2 mps 685 mmHg 45%
    16:00 +12°C° 0 mm 2 mps 685 mmHg 48%
    17:00 +10°C° 0 mm 2 mps 685 mmHg 50%
    18:00 +9°C° 0 mm 2 mps 686 mmHg 53%
    19:00 +8°C° 0 mm 2 mps 686 mmHg 54%
    20:00 +8°C° 0 mm 2 mps 686 mmHg 56%
    21:00 +7°C° 0 mm 2 mps 686 mmHg 57%
    22:00 +7°C° 0 mm 2 mps 686 mmHg 59%
    23:00 +6°C° 0 mm 2 mps 686 mmHg 60%

    28 Enero, Lunes

    Tiempo Temperatura Precipitaciones Viento Presión Humedad
    00:00 +6°C° 0 mm 2 mps 686 mmHg 61%
    01:00 +6°C° 0 mm 2 mps 686 mmHg 62%
    02:00 +5°C° 0 mm 2 mps 686 mmHg 63%
    03:00 +5°C° 0 mm 2 mps 686 mmHg 63%
    04:00 +4°C° 0 mm 3 mps 685 mmHg 62%
    05:00 +4°C° 0 mm 3 mps 684 mmHg 62%
    06:00 +3°C° 0 mm 3 mps 684 mmHg 61%
    07:00 +4°C° 0.1 mm 3 mps 684 mmHg 59%
    08:00 +4°C° 0.1 mm 3 mps 684 mmHg 57%
    09:00 +6°C° 0.1 mm 2 mps 684 mmHg 55%
    10:00 +6°C° 0.4 mm 2 mps 684 mmHg 55%
    11:00 +7°C° 0.4 mm 2 mps 684 mmHg 55%
    12:00 +7°C° 0.4 mm 2 mps 684 mmHg 55%
    13:00 +7°C° 0.2 mm 2 mps 684 mmHg 56%
    14:00 +8°C° 0.2 mm 3 mps 684 mmHg 57%
    15:00 +8°C° 0.2 mm 3 mps 684 mmHg 57%
    16:00 +7°C° 0.1 mm 3 mps 685 mmHg 60%
    17:00 +6°C° 0.1 mm 2 mps 685 mmHg 62%
    18:00 +6°C° 0.1 mm 2 mps 686 mmHg 65%
    19:00 +5°C° 0 mm 2 mps 687 mmHg 65%
    20:00 +5°C° 0 mm 2 mps 688 mmHg 66%
    21:00 +5°C° 0 mm 1 mps 689 mmHg 66%
    22:00 +5°C° 0 mm 1 mps 689 mmHg 66%
    23:00 +4°C° 0 mm 1 mps 690 mmHg 66%
    Mostrar más